Location: Newark
(41.0400°S, 62.7845°W)
Time: 14:38:12
(UTC+00:00)

Vanguard 2 Rocket - Pass Details

Date: 01 December 2021
Orbit: 553 x 3325 km, 32.9° (Epoch: 22 January)

Event Time Altitude Azimuth Distance (km) Brightness Sun altitude
Rises 11:06:56 0° 293° (WNW) 6,949 10.9 26.4°
Reaches altitude 10° 11:12:11 10° 296° (WNW) 5,627 10.5 27.4°
Maximum altitude 11:27:07 53° 6° (N) 2,277 9.3 30.2°
Drops below altitude 10° 11:35:45 10° 80° (E) 3,371 11.2 31.9°
Sets 11:38:07 0° 85° (E) 4,063 11.3 32.3°
